Starlink 32358

operational
NORAD ID: 61531 Int'l Des: 2024-183 Owner: SPXS Country: US Constellation: starlink
LEOCIRCULAR

About Starlink 32358

Description loading...

Live Position

Loading 3D Globe...

Upcoming Passes

Altitude History

Altitude vs Time

uPlot chart will show altitude changes over time

Two-Line Element Set

1 61531U 24183Y 26061.05335874 -.00000355 00000-0 14569-6 0 9999
2 61531 53.1609 177.8947 0001026 96.0011 264.1106 15.30185966 78482
Epoch: Mar 2, 2026 • Age: 29 hours

Current Status

Altitude 485.3 km
Velocity 7.62 km/s
Sub-Earth Point -31.43°S, 145.33°E
Launch Date Oct 15, 2024
Age 1.3 years
Type internet

Technical Details

Classification Payload
Mass 730.00 kg
Dry Mass 700.00 kg
Total Mass 730.00 kg
Length 0.30 m
Diameter 4.10 m
Span 29.00 m
Shape Box + pan
Manufacturer SPXS
Bus Type Starlink V2M
Phase Status In Orbit
Owner/State SPXS/US

Large Constellations

Loading constellations...